Montpelier, VT

5:19 PM EST on November 13, 2019 (GMT -0500)
Knapp State

Weather History for KMPV - August, 2019

Change the Weather History Date:

Friday, August 16, 2019

  Actual Average Record
Temperature  
Mean Temperature 68 °F 66 °F  
Max Temperature 75 °F 77 °F 89 °F (1959)
Min Temperature 61 °F 54 °F 40 °F (1968)
Degree Days  
Heating Degree Days 0 2  
Month to date heating degree days 20 28  
Since 1 June heating degree days 173 189  
Since 1 July heating degree days 29 68  
Cooling Degree Days 3 3  
Month to date cooling degree days 19 48  
Year to date cooling degree days 177 216  
Since 1 June cooling degree days 176 206  
Growing Degree Days 18 (Base 50)    
Moisture  
Dew Point 63 °F    
Average Humidity 84    
Maximum Humidity 100    
Minimum Humidity 64    
Precipitation  
Precipitation 0.19 in 0.13 in 2.03 in (2016)
Month to date precipitation 2.27 2.34  
Year to date precipitation 32.82 23.13  
Sea Level Pressure  
Sea Level Pressure 30.07 in    
Wind  
Wind Speed 4 mph ()    
Max Wind Speed 14 mph    
Max Gust Speed 18 mph    
Visibility 10.0 miles    
Events Rain    
T = Trace of Precipitation, MM = Missing Value Source: Averaged Metar Reports

Daily Weather History Graph

Daily Weather History Graph

Search for Another Location

Airport or City:

Astronomy

Aug. 16, 2019 Rise Set
Actual Time 5:54 AM EDT 7:53 PM EDT
Civil Twilight 5:23 AM EDT 8:24 PM EDT
Nautical Twilight 4:44 AM EDT 9:03 PM EDT
Astronomical Twilight 4:02 AM EDT 9:45 PM EDT
Moon 8:50 PM EDT (8/16) 6:43 AM EDT (8/16)
Length of Visible Light 15h 01m
Length of Day
13h 59m
Full, 99% of the Moon is Illuminated
Aug 16
Full
Aug 23
Last Quarter
Aug 30
New
Sep 5
First Quarter
Sep 14
Full

Hourly Weather History & Observations

Time (EDT) Temp. Dew Point Humidity Pressure Visibility Wind Dir Wind Speed Gust Speed Precip Events Conditions
12:51 AM 62.1 °F 57.0 °F 84% 30.07 in 10.0 mi Calm Calm - N/A   Mostly Cloudy
1:51 AM 63.0 °F 60.1 °F 90% 30.06 in 10.0 mi Calm Calm - 0.00 in Rain Light Rain
2:51 AM 63.0 °F 62.1 °F 97% 30.05 in 10.0 mi South 5.8 mph - 0.02 in Rain Light Rain
3:51 AM 64.0 °F 63.0 °F 96% 30.04 in 10.0 mi SSE 4.6 mph - 0.04 in   Overcast
4:51 AM 64.0 °F 63.0 °F 96% 30.05 in 10.0 mi ENE 3.5 mph - N/A   Overcast
5:51 AM 64.0 °F 63.0 °F 96% 30.05 in 10.0 mi SE 4.6 mph - 0.00 in   Overcast
6:51 AM 64.0 °F 62.1 °F 93% 30.06 in 10.0 mi SSE 5.8 mph - N/A   Mostly Cloudy
7:51 AM 64.9 °F 63.0 °F 93% 30.09 in 10.0 mi SSW 5.8 mph - N/A   Mostly Cloudy
8:51 AM 64.0 °F 62.1 °F 93% 30.10 in 10.0 mi South 5.8 mph - 0.00 in Rain Light Rain
9:51 AM 64.0 °F 63.0 °F 96% 30.11 in 10.0 mi SSE 4.6 mph - 0.11 in Rain Light Rain
10:08 AM 64.9 °F 64.0 °F 97% 30.10 in 10.0 mi SSE 6.9 mph - 0.01 in Rain Light Rain
10:51 AM 66.9 °F 63.0 °F 87% 30.11 in 10.0 mi South 8.1 mph - 0.01 in   Overcast
11:51 AM 69.1 °F 63.0 °F 81% 30.10 in 10.0 mi SSE 12.7 mph - N/A   Mostly Cloudy
12:51 PM 70.0 °F 63.0 °F 78% 30.09 in 10.0 mi South 5.8 mph - N/A   Overcast
1:51 PM 71.1 °F 62.1 °F 73% 30.09 in 10.0 mi South 9.2 mph - N/A   Mostly Cloudy
2:00 PM 71.1 °F 62.1 °F 73% 30.09 in 10.0 mi South 9.2 mph - N/A   Mostly Cloudy
2:28 PM 72.0 °F 62.1 °F 71% 30.09 in 10.0 mi SSE 11.5 mph - N/A   Overcast
2:51 PM 73.9 °F 64.0 °F 71% 30.07 in 10.0 mi Variable 6.9 mph - N/A   Overcast
3:51 PM 73.9 °F 64.0 °F 71% 30.06 in 10.0 mi South 9.2 mph - N/A   Mostly Cloudy
4:51 PM 73.0 °F 63.0 °F 71% 30.06 in 10.0 mi SSE 8.1 mph - N/A   Overcast
4:59 PM 73.9 °F 63.0 °F 68% 30.06 in 10.0 mi SSE 6.9 mph - N/A   Overcast
5:51 PM 75.0 °F 63.0 °F 66% 30.04 in 10.0 mi South 4.6 mph - N/A   Mostly Cloudy
6:51 PM 73.0 °F 64.9 °F 76% 30.04 in 10.0 mi South 3.5 mph - N/A   Mostly Cloudy
7:51 PM 71.1 °F 64.9 °F 81% 30.04 in 10.0 mi Calm Calm - N/A   Scattered Clouds
8:51 PM 66.9 °F 64.0 °F 90% 30.06 in 10.0 mi South 3.5 mph - N/A   Partly Cloudy
9:51 PM 66.0 °F 64.0 °F 93% 30.06 in 10.0 mi Calm Calm - N/A   Overcast
10:51 PM 69.1 °F 64.0 °F 84% 30.06 in 10.0 mi South 6.9 mph - 0.00 in   Mostly Cloudy
11:51 PM 66.9 °F 64.9 °F 93% 30.06 in 10.0 mi SE 4.6 mph - 0.01 in   Mostly Cloudy